Wind_Speed
16 15 16 16 17 19 17 17 17 15 15 16 14 16 16 15 12 12 8 8 10 10 9 14 10 8 6 5 3 3 6 8 2 6 7 4 2 5 6 13 12 8 5 23 28
19 17 16 16 16 18 18 17 18 16 15 16 15 15 15 16 15 6 5 10 11 16 11 13 11 10 7 6 5 8 7 2 4 2 4 4 4 5 7 13 15 21 25 29 28
19 20 18 17 16 17 18 18 17 18 16 16 16 14 13 14 11 4 0 7 15 16 12 11 9 8 9 7 9 5 11 1 4 8 10 9 4 11 5 11 7 21 27 27 26
19 20 21 18 17 17 18 18 17 18 17 16 16 15 12 8 2 5 1 1 15 17 13 12 12 11 10 9 7 8 7 9 8 10 8 6 7 18 23 12 15 24 26 26 18
21 20 20 21 19 17 18 18 18 17 17 16 16 16 11 5 6 7 5 1 15 18 15 14 13 10 10 6 7 10 9 2 4 9 14 19 19 18 22 18 23 24 21 19 16
21 20 20 21 21 19 18 17 18 17 16 16 15 15 8 8 5 5 5 6 14 14 13 13 8 9 5 8 10 1 3 2 6 10 6 18 14 6 14 16 20 20 20 17 16
16 16 20 22 23 21 18 17 17 16 15 15 14 14 12 13 7 4 4 11 13 15 12 12 8 8 3 6 8 6 8 8 5 4 12 15 15 12 14 17 20 18 16 14 17
16 15 19 23 24 24 18 17 17 15 15 14 13 12 9 13 9 14 11 9 15 14 9 7 10 7 6 1 6 10 6 12 9 2 3 10 6 5 14 19 18 16 16 15 14
24 15 19 22 25 25 18 16 16 14 13 12 11 7 9 10 9 11 15 12 10 11 7 6 9 10 8 11 9 9 11 6 7 10 3 5 10 8 10 15 16 15 13 13 13
23 22 19 20 25 24 18 15 13 12 10 9 12 6 14 3 6 7 12 16 11 14 7 8 9 10 10 11 10 6 8 6 3 7 12 15 14 10 10 13 15 14 12 12 14
24 21 18 21 23 22 17 8 5 4 9 10 5 5 1 4 7 7 11 17 14 17 12 15 10 14 16 15 9 3 3 3 6 5 7 12 12 9 9 12 12 12 13 13 15
20 20 16 21 18 20 15 4 2 4 10 17 25 21 14 3 3 10 16 16 19 18 16 8 16 12 8 11 10 9 7 4 5 5 4 10 10 8 9 9 10 15 15 15 17
19 20 19 17 16 20 12 6 4 6 7 9 16 17 16 17 8 13 21 20 19 20 19 15 2 11 12 13 13 12 11 9 2 9 6 13 8 8 7 10 11 11 13 14 16
18 18 24 11 15 10 8 9 5 2 5 6 9 9 14 12 11 15 22 19 12 19 17 13 9 9 14 15 15 12 6 9 12 12 2 14 1 11 12 9 11 13 14 15 15
17 18 20 13 9 7 6 6 3 4 6 10 7 7 11 22 13 18 23 19 18 14 12 11 14 13 15 15 14 9 2 11 14 9 6 12 7 10 13 8 11 15 16 16 14
16 19 22 15 17 15 13 6 9 6 9 8 9 12 12 18 10 21 19 14 16 12 16 6 5 15 13 4 7 10 14 11 9 5 8 5 8 9 8 12 15 17 18 18 15
16 18 25 21 7 8 8 5 6 9 5 9 9 11 17 14 13 20 21 20 16 16 14 14 12 8 15 13 13 8 15 6 7 7 4 2 5 8 2 3 16 23 22 18 16
17 17 26 27 16 12 9 6 12 10 8 5 8 14 16 17 15 21 21 19 18 17 14 14 17 15 14 11 8 15 11 6 6 4 3 3 4 6 3 4 17 19 20 18 16
16 18 27 25 21 11 4 13 10 8 11 9 15 17 11 21 9 17 22 22 15 16 11 13 12 11 8 6 11 12 8 2 3 2 5 4 5 7 9 11 18 20 20 18 16
14 9 27 14 18 13 5 16 11 7 3 13 11 14 18 24 14 17 21 21 20 18 4 9 10 8 7 9 4 9 12 5 4 5 7 5 2 7 11 13 14 18 18 17 15
12 6 16 19 19 18 10 18 10 12 9 7 11 10 14 24 16 18 21 11 21 19 9 7 7 8 9 9 14 7 7 1 2 3 5 6 6 5 10 14 15 18 18 17 15
9 4 11 21 18 17 15 24 6 14 11 9 5 5 14 20 14 16 20 10 29 19 12 6 3 11 10 4 3 2 4 6 4 4 2 4 5 2 8 17 18 19 17 16 13
6 10 10 22 11 13 14 23 18 8 6 2 8 8 10 20 9 9 16 2 20 14 14 10 7 9 8 6 4 4 4 3 6 2 4 5 6 6 18 18 18 19 17 16 14
3 4 6 16 20 16 21 19 21 13 15 9 5 7 14 18 6 10 11 6 11 10 6 7 3 7 9 8 8 9 8 4 1 4 3 3 15 15 16 16 18 18 17 16 14
9 5 7 5 14 12 19 14 21 12 12 6 5 13 17 17 11 12 11 11 6 9 5 2 5 6 8 7 7 10 9 5 4 4 3 13 16 17 16 17 18 18 17 16 14
4 6 6 12 27 20 17 25 17 21 12 7 10 9 15 17 12 18 14 13 9 5 5 1 5 11 10 10 12 14 10 10 9 9 11 16 17 18 19 20 20 18 17 16 12
16 28 12 13 19 19 17 20 21 15 13 21 9 9 12 16 13 21 19 14 15 11 5 4 8 7 5 10 13 8 6 5 8 3 16 16 15 22 18 19 19 18 16 15 12
Wind_Direction
332 319 309 302 297 294 295 294 297 300 304 308 314 315 317 318 313 304 283 223 203 194 197 192 180 178 178 201 218 255 249 251 246 215 120 88 263 82 89 101 58 41 115 146 151
337 330 313 311 304 294 296 291 292 295 298 301 306 311 319 322 322 308 233 209 195 190 187 174 177 174 194 206 213 244 255 318 352 2 332 325 317 79 185 120 77 82 104 134 142
332 333 328 314 308 300 296 293 289 290 292 296 300 303 315 324 326 163 205 230 197 181 194 190 186 199 223 216 206 210 259 4 241 359 328 320 81 32 296 87 81 140 133 140 139
322 326 326 324 313 306 299 296 291 287 289 292 295 299 312 322 323 201 31 177 184 177 177 182 188 208 235 224 213 249 241 272 350 336 320 333 80 58 53 44 108 132 135 135 138
306 316 320 323 318 310 301 297 292 286 288 290 293 298 322 276 252 234 245 44 178 172 182 189 196 215 238 240 225 241 261 283 23 54 78 84 75 79 65 82 109 121 127 133 133
285 302 314 320 321 313 302 297 292 289 288 291 292 296 312 261 250 237 234 187 178 180 188 199 219 223 271 246 236 5 263 64 76 118 106 96 76 68 72 100 110 119 126 129 127
288 290 307 315 319 316 302 298 293 287 284 285 289 293 285 256 237 212 199 182 188 192 207 210 215 201 221 228 232 250 243 172 63 170 140 135 50 72 107 112 113 117 124 126 136
310 285 302 309 313 315 305 301 291 287 280 278 282 290 261 264 239 221 213 195 194 197 196 223 216 230 230 239 206 240 235 216 67 185 155 216 98 69 125 119 111 108 99 99 108
284 307 293 303 311 312 307 300 292 288 279 272 274 261 269 258 237 227 207 194 193 190 192 189 178 213 200 223 213 199 250 220 128 28 171 265 127 127 128 129 121 111 112 118 121
281 283 289 297 307 310 308 301 294 287 267 257 246 263 239 200 183 186 195 186 180 177 169 171 189 204 219 214 230 223 221 213 66 47 78 87 111 127 141 140 124 118 117 116 116
266 278 288 290 302 309 315 326 299 255 227 218 225 246 137 243 207 206 190 167 174 184 195 192 210 211 211 216 264 254 237 201 112 91 79 100 126 138 147 134 126 126 130 123 116
272 268 284 270 298 305 311 291 206 303 297 247 243 247 239 246 243 187 172 172 182 195 196 184 225 224 236 215 218 222 217 158 112 112 113 124 121 135 156 146 148 147 141 136 127
277 261 263 254 297 299 288 220 233 324 269 265 226 230 231 217 229 197 182 195 194 203 196 213 178 214 207 199 215 222 235 176 231 148 126 153 149 160 123 121 134 140 141 138 137
284 255 243 271 292 279 278 196 245 261 267 206 208 227 191 188 225 200 191 185 195 209 204 226 209 207 206 214 216 232 224 225 169 187 226 207 95 181 160 149 153 149 149 150 143
287 270 256 255 243 282 254 202 259 167 250 138 155 166 181 183 143 188 185 200 195 192 191 197 197 191 211 223 210 259 235 179 182 206 187 201 256 101 149 182 180 171 164 157 148
283 277 257 266 244 261 262 242 162 219 235 175 150 176 167 200 198 149 173 205 209 183 219 238 209 206 221 100 210 134 129 145 180 199 237 125 251 139 176 204 174 169 168 157 147
284 277 260 245 235 248 245 200 191 229 130 172 183 179 184 181 179 176 176 187 183 189 198 198 194 156 146 103 150 193 172 166 203 207 315 123 233 69 87 75 167 168 165 155 151
278 281 250 241 249 252 271 227 218 188 215 134 159 171 183 170 177 181 178 186 207 199 185 187 195 188 187 191 187 195 213 277 265 274 28 157 259 87 57 142 147 157 155 153 153
286 290 260 249 218 222 231 208 205 202 195 164 153 166 181 185 172 182 193 192 183 199 184 193 192 171 192 191 193 184 223 41 121 54 262 122 110 122 119 110 133 144 154 157 158
281 277 266 223 205 195 213 225 219 225 295 182 180 191 185 185 182 188 189 205 190 200 238 200 182 201 144 167 170 241 139 187 203 260 295 150 198 76 162 145 143 151 157 157 156
272 243 249 208 196 201 220 209 233 256 267 215 207 189 196 183 192 188 187 179 192 189 205 168 228 158 168 208 186 166 179 51 62 320 299 302 91 48 151 154 155 155 155 157 159
250 248 209 190 190 214 221 212 262 267 261 243 262 220 191 178 186 186 182 190 188 175 190 188 226 173 181 73 291 22 133 194 257 140 54 300 94 21 143 144 145 145 149 153 156
223 238 195 179 206 203 219 224 232 274 249 233 226 231 194 172 176 169 177 140 171 182 176 177 173 149 150 155 167 135 110 130 110 113 205 285 99 119 130 133 140 143 147 151 154
265 235 156 196 232 216 204 212 219 244 260 264 269 202 179 175 176 171 145 146 156 166 134 143 138 210 189 171 141 142 142 135 191 230 135 357 133 143 140 137 141 143 149 153 157
219 263 187 171 211 212 208 210 216 232 226 249 225 229 180 170 165 160 142 134 130 142 117 201 114 100 82 113 133 137 135 135 113 83 265 136 146 151 148 146 148 147 149 154 158
234 251 254 199 199 208 209 219 219 215 250 229 232 214 206 178 186 169 161 164 163 164 139 123 123 119 64 114 126 113 106 102 105 100 106 130 129 138 135 136 144 149 154 155 154
241 264 271 193 191 196 212 218 213 220 241 247 282 321 206 204 189 162 157 156 152 156 134 124 141 149 119 138 130 120 120 108 112 130 144 150 147 142 144 148 150 151 154 154 151
Height
1538 1537 1536 1535 1534 1533 1531 1530 1530 1528 1526 1525 1523 1522 1520 1517 1516 1514 1514 1516 1515 1517 1518 1520 1521 1523 1524 1524 1524 1522 1512 1504 1503 1507 1503 1512 1511 1518 1523 1527 1533 1538 1538 1540 1548
1538 1536 1533 1532 1531 1530 1529 1528 1527 1526 1524 1523 1521 1520 1518 1515 1513 1511 1511 1511 1513 1515 1518 1521 1522 1523 1522 1522 1522 1517 1509 1502 1508 1507 1507 1509 1513 1514 1519 1528 1541 1543 1545 1548 1553
1537 1534 1533 1530 1529 1528 1526 1525 1524 1523 1521 1520 1519 1518 1517 1515 1512 1511 1509 1508 1510 1513 1518 1521 1522 1523 1520 1519 1517 1513 1510 1508 1509 1512 1513 1512 1514 1524 1516 1523 1536 1544 1547 1552 1552
1534 1533 1532 1529 1526 1525 1524 1522 1521 1521 1519 1518 1516 1515 1515 1514 1510 1509 1508 1506 1508 1512 1516 1519 1521 1520 1517 1515 1515 1515 1513 1513 1512 1516 1515 1513 1517 1532 1533 1541 1538 1545 1550 1553 1563
1533 1532 1530 1527 1524 1523 1522 1520 1519 1518 1516 1515 1514 1513 1514 1514 1510 1508 1507 1508 1508 1511 1515 1517 1518 1517 1515 1514 1515 1515 1512 1514 1517 1519 1519 1521 1528 1537 1545 1547 1547 1549 1556 1561 1564
1531 1530 1528 1525 1523 1520 1520 1518 1516 1515 1514 1513 1511 1511 1512 1512 1505 1506 1506 1508 1509 1512 1515 1516 1516 1517 1516 1515 1515 1512 1513 1516 1517 1519 1523 1524 1534 1534 1553 1552 1553 1555 1556 1561 1563
1527 1527 1526 1523 1520 1519 1517 1516 1513 1512 1511 1510 1509 1509 1508 1506 1504 1504 1505 1507 1508 1511 1514 1515 1516 1517 1515 1514 1515 1514 1512 1513 1519 1519 1522 1521 1538 1552 1556 1555 1555 1558 1560 1562 1562
1524 1523 1522 1522 1520 1517 1515 1512 1511 1510 1509 1508 1508 1508 1503 1499 1499 1501 1503 1506 1507 1509 1512 1513 1515 1517 1516 1515 1513 1510 1509 1507 1520 1518 1519 1520 1548 1558 1557 1557 1559 1560 1562 1565 1565
1521 1521 1521 1519 1517 1514 1512 1510 1508 1506 1507 1507 1508 1507 1502 1495 1497 1497 1500 1504 1507 1509 1510 1511 1514 1515 1515 1510 1507 1505 1504 1505 1516 1519 1516 1513 1545 1559 1559 1560 1561 1563 1565 1566 1567
1518 1518 1517 1517 1516 1513 1511 1507 1505 1504 1505 1506 1505 1509 1496 1495 1495 1496 1496 1501 1505 1508 1511 1512 1511 1509 1506 1504 1508 1503 1508 1508 1510 1522 1522 1530 1550 1559 1560 1561 1563 1565 1568 1569 1569
1514 1515 1515 1515 1514 1511 1508 1506 1508 1506 1502 1497 1497 1493 1492 1493 1493 1494 1495 1498 1503 1506 1502 1506 1503 1501 1497 1498 1495 1500 1504 1506 1517 1525 1526 1536 1550 1558 1561 1563 1565 1567 1569 1571 1571
1510 1511 1512 1513 1512 1509 1508 1507 1507 1508 1498 1490 1491 1490 1489 1490 1492 1492 1494 1495 1497 1496 1496 1504 1499 1491 1494 1496 1501 1501 1504 1509 1523 1525 1525 1539 1554 1559 1561 1563 1565 1566 1569 1572 1574
1506 1507 1508 1509 1508 1508 1506 1507 1506 1505 1501 1486 1484 1483 1485 1490 1489 1487 1491 1490 1491 1491 1493 1489 1488 1491 1496 1499 1501 1499 1500 1504 1505 1523 1524 1533 1549 1557 1563 1565 1567 1569 1571 1573 1575
1502 1503 1504 1506 1510 1505 1505 1505 1505 1504 1493 1474 1477 1473 1478 1485 1484 1483 1485 1489 1487 1487 1488 1488 1487 1492 1494 1493 1495 1498 1492 1497 1512 1513 1510 1520 1510 1538 1559 1564 1567 1569 1571 1573 1574
1499 1499 1499 1503 1503 1505 1504 1502 1502 1504 1485 1464 1470 1470 1473 1475 1470 1476 1481 1486 1481 1482 1488 1486 1487 1491 1493 1490 1489 1492 1496 1497 1506 1504 1511 1519 1515 1530 1552 1560 1564 1567 1570 1573 1575
1495 1495 1495 1499 1499 1501 1501 1501 1503 1498 1481 1462 1463 1465 1470 1470 1468 1471 1478 1482 1480 1481 1483 1476 1483 1485 1484 1491 1490 1498 1500 1504 1504 1502 1509 1499 1508 1524 1537 1539 1554 1565 1569 1572 1576
1491 1490 1490 1494 1498 1498 1499 1500 1495 1478 1453 1455 1455 1459 1459 1462 1462 1465 1468 1473 1473 1484 1484 1479 1481 1482 1487 1493 1497 1494 1494 1503 1510 1507 1505 1510 1511 1525 1529 1534 1545 1558 1565 1571 1576
1487 1487 1487 1488 1492 1495 1496 1496 1476 1447 1450 1444 1448 1454 1456 1455 1457 1459 1464 1468 1463 1465 1471 1481 1489 1479 1479 1479 1486 1489 1484 1489 1511 1503 1498 1513 1507 1523 1540 1541 1544 1556 1564 1571 1576
1482 1479 1480 1482 1487 1492 1496 1479 1448 1446 1439 1444 1449 1453 1451 1451 1453 1458 1458 1458 1462 1460 1468 1471 1472 1468 1475 1477 1478 1487 1493 1480 1496 1506 1503 1496 1524 1536 1541 1544 1549 1557 1565 1571 1575
1479 1478 1473 1477 1482 1488 1490 1459 1444 1446 1444 1439 1442 1439 1447 1446 1450 1451 1456 1453 1458 1461 1461 1463 1474 1471 1477 1478 1481 1477 1476 1490 1485 1508 1508 1499 1505 1509 1538 1545 1552 1559 1564 1570 1575
1476 1475 1468 1470 1477 1480 1470 1453 1448 1446 1446 1441 1434 1440 1434 1439 1440 1445 1451 1450 1454 1459 1463 1460 1463 1478 1475 1475 1470 1480 1479 1483 1482 1492 1501 1502 1506 1528 1529 1541 1549 1557 1564 1570 1575
1473 1468 1462 1465 1471 1464 1461 1452 1450 1446 1442 1440 1438 1431 1431 1434 1440 1441 1446 1443 1450 1455 1462 1461 1462 1475 1471 1477 1475 1470 1472 1475 1485 1498 1500 1498 1514 1533 1533 1542 1550 1558 1565 1570 1575
1470 1464 1459 1461 1452 1451 1456 1454 1451 1447 1438 1434 1432 1430 1427 1431 1441 1439 1440 1448 1450 1453 1455 1461 1464 1478 1482 1481 1476 1475 1480 1480 1481 1485 1497 1500 1517 1532 1538 1545 1553 1559 1566 1571 1575
1463 1456 1452 1455 1451 1447 1451 1448 1447 1444 1441 1438 1433 1428 1425 1428 1430 1441 1442 1450 1452 1453 1456 1458 1463 1459 1472 1468 1467 1482 1483 1482 1480 1488 1492 1499 1528 1535 1540 1547 1554 1562 1567 1571 1575
1462 1451 1443 1445 1448 1446 1444 1440 1441 1441 1435 1433 1426 1424 1419 1426 1431 1432 1439 1448 1453 1456 1458 1456 1469 1473 1474 1474 1471 1477 1482 1484 1487 1490 1495 1506 1517 1529 1539 1547 1555 1562 1567 1571 1575
1454 1449 1441 1433 1441 1443 1440 1435 1433 1433 1435 1425 1428 1419 1416 1420 1421 1429 1430 1436 1444 1455 1455 1459 1478 1472 1484 1478 1480 1486 1487 1490 1495 1497 1501 1506 1522 1532 1541 1550 1557 1562 1567 1571 1576
1449 1445 1446 1426 1431 1435 1429 1432 1433 1434 1430 1427 1427 1424 1421 1416 1419 1424 1429 1434 1440 1446 1453 1456 1467 1470 1494 1484 1485 1497 1493 1493 1499 1501 1503 1514 1521 1536 1544 1550 1556 1561 1567 1571 1576